Terminal Aerodrome Forecast
Issued by NWS

Home | Current Version | Previous Version | Text Only | Print | Product List | Glossary On
Versions: 1 2 3 4 5 6 7 8 9 10 11 12
525
FTPA31 PHFO 120520
TAFSTU
TAF
NSTU 120520Z 1206/1306 11011KT P6SM VCSH SCT018 BKN040 BKN120
      AMD NOT SKED=

USA.gov is the U.S. government's official web portal to all federal, state and local government web resources and services.